Weslaco, TX

1:51 AM CDT on April 25, 2017 (GMT -0500)
Weslaco

Weather History for KT65 - May, 2013

Change the Weather History Date:

Wednesday, May 8, 2013

  Actual Average (KMFE) Record (KMFE)
Temperature  
Mean Temperature 77 °F -  
Max Temperature 85 °F 89 °F 100 °F (1998)
Min Temperature 69 °F 69 °F 59 °F (1992)
Cooling Degree Days 12    
Growing Degree Days 27 (Base 50)    
Moisture  
Dew Point 66 °F    
Average Humidity 70    
Maximum Humidity 87    
Minimum Humidity 50    
Precipitation  
Precipitation 0.04 in - - ()
Sea Level Pressure  
Sea Level Pressure 29.94 in    
Wind  
Wind Speed 12 mph (SSE)    
Max Wind Speed 20 mph    
Max Gust Speed 25 mph    
Visibility 10 miles    
Events      
Averages and records for this station are not official NWS values.
T = Trace of Precipitation, MM = Missing Value Source: NWS Daily Summary

Daily Weather History Graph

Daily Weather History Graph

Search for Another Location

Airport or City:

Trip Planner

Search our weather history database for the weather conditions in past years. The results will help you decide how hot, cold, wet, or windy it might be!

Date:

Astronomy

May. 08, 2013 Rise Set
Actual Time 6:49 AM CDT 8:07 PM CDT
Civil Twilight 6:24 AM CDT 8:32 PM CDT
Nautical Twilight 5:55 AM CDT 9:01 PM CDT
Astronomical Twilight 5:25 AM CDT 9:32 PM CDT
Moon 5:51 AM CDT (5/8) 7:11 PM CDT (5/8)
Length of Visible Light 14h 07m
Length of Day
13h 18m
Waning Crescent, 2% of the Moon is Illuminated
May 8
Waning Crescent
May 9
New
May 17
First Quarter
May 24
Full
May 31
Last Quarter

Hourly Weather History & Observations

Time (CDT) Temp. Heat Index Dew Point Humidity Pressure Visibility Wind Dir Wind Speed Gust Speed Precip Events Conditions
12:15 AM 71.6 °F - 64.6 °F 78% 30.01 in 10.0 mi SE 10.4 mph - N/A   Overcast
12:35 AM 71.6 °F - 64.6 °F 78% 30.00 in 10.0 mi SE 10.4 mph 16.1 mph N/A   Overcast
12:55 AM 71.6 °F - 64.6 °F 78% 29.99 in 10.0 mi SE 13.8 mph 19.6 mph N/A   Overcast
1:15 AM 71.6 °F - 64.6 °F 78% 29.99 in 10.0 mi SE 12.7 mph 19.6 mph N/A   Overcast
1:35 AM 71.6 °F - 64.6 °F 78% 29.98 in 10.0 mi SE 11.5 mph 18.4 mph N/A   Overcast
1:55 AM 71.6 °F - 64.6 °F 78% 29.98 in 10.0 mi SSE 11.5 mph 17.3 mph N/A   Overcast
2:15 AM 71.6 °F - 64.8 °F 79% 29.96 in 10.0 mi SSE 12.7 mph 19.6 mph N/A   Overcast
2:35 AM 70.9 °F - 64.6 °F 80% 29.95 in 10.0 mi SE 10.4 mph 17.3 mph N/A   Overcast
2:55 AM 70.7 °F - 64.6 °F 81% 29.94 in 10.0 mi SE 10.4 mph - N/A   Mostly Cloudy
3:15 AM 70.3 °F - 64.6 °F 82% 29.94 in 10.0 mi SSE 11.5 mph - N/A   Clear
3:35 AM 70.2 °F - 64.6 °F 82% 29.93 in 10.0 mi SSE 11.5 mph 17.3 mph N/A   Clear
3:55 AM 70.2 °F - 64.8 °F 83% 29.93 in 10.0 mi SSE 15.0 mph - N/A   Mostly Cloudy
4:15 AM 70.5 °F - 64.8 °F 82% 29.92 in 10.0 mi SSE 13.8 mph 19.6 mph N/A   Overcast
4:35 AM 70.7 °F - 64.8 °F 81% 29.92 in 10.0 mi SSE 13.8 mph 19.6 mph N/A   Overcast
4:55 AM 70.7 °F - 64.8 °F 81% 29.92 in 10.0 mi SSE 12.7 mph 19.6 mph N/A   Overcast
5:15 AM 70.2 °F - 64.8 °F 83% 29.93 in 10.0 mi SSE 10.4 mph 18.4 mph N/A   Overcast
5:35 AM 70.3 °F - 64.9 °F 83% 29.93 in 10.0 mi SSE 10.4 mph 16.1 mph N/A   Overcast
5:55 AM 70.7 °F - 65.3 °F 83% 29.94 in 10.0 mi SSE 11.5 mph 16.1 mph N/A   Overcast
6:15 AM 70.5 °F - 65.3 °F 83% 29.94 in 10.0 mi SSE 11.5 mph - N/A   Overcast
6:35 AM 69.8 °F - 65.1 °F 85% 29.94 in 10.0 mi SSE 9.2 mph - N/A   Mostly Cloudy
6:55 AM 69.6 °F - 65.1 °F 86% 29.95 in 10.0 mi SSE 10.4 mph - N/A   Mostly Cloudy
7:15 AM 69.4 °F - 65.3 °F 87% 29.96 in 10.0 mi SSE 6.9 mph - N/A   Scattered Clouds
7:35 AM 70.3 °F - 65.5 °F 85% 29.96 in 10.0 mi SSE 9.2 mph - N/A   Clear
7:55 AM 70.9 °F - 65.5 °F 83% 29.97 in 10.0 mi SSE 9.2 mph - N/A   Scattered Clouds
8:15 AM 72.1 °F - 66.0 °F 81% 29.98 in 10.0 mi SE 9.2 mph - N/A   Scattered Clouds
8:35 AM 73.2 °F - 66.2 °F 79% 29.98 in 10.0 mi SSE 9.2 mph - N/A   Mostly Cloudy
8:55 AM 73.9 °F - 66.2 °F 77% 29.98 in 10.0 mi SSE 10.4 mph 17.3 mph N/A   Mostly Cloudy
9:15 AM 75.0 °F - 66.2 °F 74% 29.98 in 10.0 mi SSE 12.7 mph 20.7 mph N/A   Overcast
9:35 AM 76.8 °F - 65.8 °F 69% 29.98 in 10.0 mi SSE 15.0 mph 21.9 mph N/A   Overcast
9:55 AM 77.5 °F - 65.3 °F 66% 29.99 in 10.0 mi SSE 13.8 mph 19.6 mph N/A   Overcast
10:15 AM 78.1 °F - 64.9 °F 64% 29.99 in 10.0 mi SSE 16.1 mph 21.9 mph N/A   Overcast
10:35 AM 80.2 °F 82.0 °F 64.9 °F 59% 29.98 in 10.0 mi SSE 13.8 mph 19.6 mph N/A   Overcast
10:55 AM 80.2 °F 82.0 °F 64.8 °F 59% 29.98 in 10.0 mi SSE 16.1 mph 21.9 mph N/A   Overcast
11:15 AM 79.7 °F - 64.9 °F 61% 29.98 in 10.0 mi South 16.1 mph 21.9 mph N/A   Overcast
11:35 AM 80.1 °F 82.0 °F 65.3 °F 61% 29.98 in 10.0 mi South 13.8 mph - N/A   Overcast
11:55 AM 81.3 °F 83.3 °F 65.7 °F 59% 29.98 in 10.0 mi SSE 9.2 mph 21.9 mph N/A   Overcast
12:15 PM 82.6 °F 84.5 °F 65.7 °F 56% 29.96 in 10.0 mi SE 16.1 mph 21.9 mph N/A   Overcast
12:35 PM 84.2 °F 86.3 °F 66.0 °F 54% 29.96 in 7.0 mi SSE 17.3 mph 23.0 mph N/A   Mostly Cloudy
12:55 PM 84.9 °F 86.8 °F 65.7 °F 52% 29.95 in 7.0 mi SSE 18.4 mph 23.0 mph N/A   Mostly Cloudy
1:15 PM 84.6 °F 86.6 °F 65.7 °F 53% 29.94 in 10.0 mi SSE 16.1 mph 25.3 mph N/A   Overcast
1:35 PM 84.4 °F 86.3 °F 65.3 °F 53% 29.94 in 7.0 mi SE 18.4 mph 23.0 mph N/A   Overcast
1:55 PM 83.7 °F 85.5 °F 65.7 °F 54% 29.94 in 7.0 mi SSE 17.3 mph 25.3 mph N/A   Overcast
2:15 PM 83.3 °F 85.3 °F 65.8 °F 55% 29.94 in 7.0 mi SSE 19.6 mph 24.2 mph N/A   Overcast
2:35 PM 83.1 °F 85.0 °F 65.7 °F 55% 29.93 in 10.0 mi SSE 15.0 mph 23.0 mph N/A   Overcast
2:55 PM 82.8 °F 84.7 °F 65.7 °F 56% 29.92 in 7.0 mi SSE 15.0 mph 21.9 mph N/A   Overcast
3:35 PM - - - N/A% - - North - - N/A   Unknown
3:55 PM 84.4 °F 86.6 °F 66.2 °F 54% 29.89 in 7.0 mi SE 15.0 mph 24.2 mph 0.04 in   Overcast
4:15 PM 84.0 °F 86.0 °F 65.7 °F 54% 29.89 in 10.0 mi SSE 15.0 mph 23.0 mph N/A   Mostly Cloudy
4:35 PM 85.5 °F 87.4 °F 65.3 °F 51% 29.88 in 10.0 mi SSE 16.1 mph 23.0 mph N/A   Mostly Cloudy
4:55 PM 85.8 °F 87.6 °F 65.1 °F 50% 29.88 in 10.0 mi SE 15.0 mph 20.7 mph N/A   Mostly Cloudy
5:15 PM 83.8 °F 85.8 °F 65.5 °F 54% 29.88 in 10.0 mi SSE 16.1 mph 23.0 mph N/A   Scattered Clouds
5:35 PM 83.5 °F 85.5 °F 66.0 °F 55% 29.88 in 10.0 mi SE 13.8 mph 20.7 mph N/A   Mostly Cloudy
5:55 PM 82.8 °F 84.9 °F 66.2 °F 57% 29.88 in 10.0 mi SE 15.0 mph 24.2 mph N/A   Mostly Cloudy
6:15 PM 82.4 °F 84.2 °F 65.5 °F 56% 29.88 in 7.0 mi SE 13.8 mph 23.0 mph N/A   Overcast
6:35 PM 81.3 °F 83.5 °F 66.2 °F 60% 29.88 in 10.0 mi SE 12.7 mph 21.9 mph N/A   Overcast
6:55 PM 80.4 °F 82.7 °F 66.6 °F 63% 29.89 in 10.0 mi SE 15.0 mph 23.0 mph N/A   Overcast
7:15 PM 79.3 °F - 67.1 °F 66% 29.89 in 10.0 mi SE 12.7 mph 19.6 mph N/A   Overcast
7:35 PM 78.8 °F - 66.9 °F 67% 29.89 in 10.0 mi SE 13.8 mph 24.2 mph N/A   Overcast
7:55 PM 78.1 °F - 66.9 °F 68% 29.90 in 10.0 mi SE 12.7 mph 20.7 mph N/A   Overcast
8:15 PM 77.5 °F - 67.1 °F 70% 29.90 in 10.0 mi SE 13.8 mph 19.6 mph N/A   Overcast
8:35 PM 77.0 °F - 66.9 °F 71% 29.91 in 10.0 mi ESE 11.5 mph 19.6 mph N/A   Mostly Cloudy
8:55 PM 76.3 °F - 67.1 °F 73% 29.91 in 10.0 mi SE 9.2 mph 17.3 mph N/A   Scattered Clouds
9:15 PM 76.1 °F - 67.5 °F 74% 29.92 in 10.0 mi SE 12.7 mph 19.6 mph N/A   Mostly Cloudy
9:35 PM 75.7 °F - 68.0 °F 77% 29.92 in 10.0 mi SE 9.2 mph 16.1 mph N/A   Mostly Cloudy
10:15 PM 75.6 °F - 68.2 °F 78% 29.93 in 10.0 mi SE 10.4 mph 18.4 mph N/A   Overcast
10:35 PM 75.6 °F - 68.4 °F 78% 29.94 in 10.0 mi SE 11.5 mph 17.3 mph N/A   Overcast
10:55 PM 75.6 °F - 68.5 °F 79% 29.94 in 10.0 mi SE 10.4 mph - N/A   Overcast
11:55 PM 75.2 °F - 68.9 °F 81% 29.93 in 10.0 mi SE 13.8 mph 19.6 mph N/A   Overcast